Location: Lac Lasalle
(46.0398°N, 74.1576°W)
Time: 17:16:32
(UTC-05:00)

PCSat - Pass Details

Date: 17 December 2019
Orbit: 785 x 794 km, 67.1° (Epoch: 28 January)

Event Time Altitude Azimuth Distance (km) Brightness Sun altitude
Rises 18:49:41 0° 332° (NNW) 3,304 13.0 -26.2°
Reaches altitude 10° 18:53:26 10° 358° (N) 2,372 12.0 -26.9°
Enters shadow 18:53:34 10° 359° (N) 2,349 11.9 -26.9°
